Regional Weather Roundup
Issued by NWS Green Bay, WI

Home | Current Version | Previous Version | Graphics & Text | Print | Product List | Glossary Off
Versions: 1 2 3 4 5 6 7 8 9 10 11 12 13 14 15 16 17 18 19 20 21 22 23 24 25 26 27 28 29 30 31 32 33 34 35 36 37 38 39 40 41 42 43 44 45 46 47 48 49 50

000
ASUS43 KGRB 290100
RWRGRB

NORTH-CENTRAL AND NORTHEAST WISCONSIN REGIONAL WEATHER ROUNDUP
NATIONAL WEATHER SERVICE GREEN BAY WI
800 PM CDT THU APR 28 2016

WIZ005-009-010>012-018-019-290200-
NORTH CENTRAL WISCONSIN

CITY           SKY/WX    TMP DP  RH WIND       PRES   REMARKS
IRONWOOD       CLEAR     39  28  65 NE3       30.06R
MANITOWISH WTR NOT AVBL
ARBOR VITAE    NOT AVBL
EAGLE RIVER    NOT AVBL
LAND O LAKES   NOT AVBL
RHINELANDER    CLOUDY    48  21  34 SE7       30.04R
PHILLIPS       NOT AVBL
ANTIGO         NOT AVBL
TOMAHAWK       NOT AVBL
MERRILL        NOT AVBL
$$

WIZ013-073-290200-
NORTHEAST WISCONSIN

CITY           SKY/WX    TMP DP  RH WIND       PRES   REMARKS
IRON MOUNTAIN  CLOUDY    48  23  37 NE6       30.05R
MARINETTE      CLOUDY    43  28  56 CALM      30.06F
$$

WIZ017-030-035>037-045-290200-
CENTRAL WISCONSIN

CITY           SKY/WX    TMP DP  RH WIND       PRES   REMARKS
MEDFORD        NOT AVBL
WAUSAU         LGT RAIN  40  36  86 E7        30.05R
MOSINEE        CLOUDY    39  36  87 NE12      30.07R
MARSHFIELD     LGT RAIN  41  35  79 E7        30.05R
WISC RAPIDS    CLOUDY    41  33  73 NE8       30.07R
STEVENS POINT  NOT AVBL
WAUPACA        NOT AVBL
SHAWANO        NOT AVBL
CLINTONVILLE   NOT AVBL
WAUTOMA        CLOUDY    42  34  73 E10       30.05R
$$

WIZ038-039-048-051-290200-
FOX VALLEY

CITY           SKY/WX    TMP DP  RH WIND       PRES   REMARKS
NWS GREEN BAY  CLOUDY    43  35  73 N8        30.06R
APPLETON       CLOUDY    43  28  56 NE8       30.03S
OSHKOSH        CLOUDY    42  36  79 E5        30.04R
FOND DU LAC    LGT RAIN  40  38  93 E6        30.03S
$$

WIZ022-050-052-290200-
EAST CENTRAL WISCONSIN

CITY           SKY/WX    TMP DP  RH WIND       PRES   REMARKS
EPHRAIM        NOT AVBL
STURGEON BAY   CLOUDY    41  28  60 NE6       30.08S
MANITOWOC      NOT AVBL
SHEBOYGAN      CLOUDY    41  35  79 NE6       30.03S
$$

LMZ563-521-522-541>543-290200-
LAKESHORE

STATION/POSITION TIME  TEMP    WIND        PRES    VSBY  WAVE
                       AIR SEA DIR/SP/G                  HT/PER
                 (UTC) (F)     (DEG/KT/KT) (MB)    (MI)  (FT/S)
SHEBOYGAN LKSHOR 0000   41      70/ 10/ 12 1017.4F
KEWAUNEE LKSHORE 0000   41                 1016.8R
ALGOMA MARINA    0000           70/ 11/ 13   N/A
NORTHPORT PIER   0000   40      80/  7/  8 1017.9S
N MID LAKE BUOY  2350   40 38   60/  8/ 10 1018.0F         1/ 4
CHAMBERS ISLAND  0000   42      30/  4/  6 1017.9S
MENOMINEE LKSHOR 0000   42                 1016.9R
$$



USA.gov is the U.S. government's official web portal to all federal, state and local government web resources and services.